This is the latest recevied weather packets stored in our database for station/object WD7OO. If no packets are shown the sender has not sent any weather packets the latest 10 day(s).
| Time | Temp. | Humidity | Pressure | Rain* | Wind** | Luminosity | Snow |
|---|---|---|---|---|---|---|---|
| 1788556189 | 32.78° C | 66% | 1013.5 hPa | 0 mm | - | 375 W/m² | - |
| 1788555887 | 32.78° C | 66% | 1013.5 hPa | 0 mm | - | 377 W/m² | - |
| 1788555583 | 32.22° C | 66% | 1013.5 hPa | 0 mm | - | 379 W/m² | - |
| 1788555278 | 32.78° C | 68% | 1013.7 hPa | 0 mm | - | 377 W/m² | - |
| 1788554976 | 32.78° C | 66% | 1013.9 hPa | 0 mm | - | 400 W/m² | - |
| 1788554671 | 32.22° C | 65% | 1013.7 hPa | 0 mm | - | 426 W/m² | - |
| 1788554367 | 32.22° C | 65% | 1013.8 hPa | 0 mm | - | 443 W/m² | - |
| 1788554063 | 32.22° C | 66% | 1013.9 hPa | 0 mm | - | 454 W/m² | - |
| 1788553759 | 32.78° C | 65% | 1013.8 hPa | 0 mm | - | 460 W/m² | - |
| 1788553455 | 32.22° C | 66% | 1013.8 hPa | 0 mm | - | 450 W/m² | - |
| 1788553151 | 32.22° C | 67% | 1014.1 hPa | 0 mm | - | 457 W/m² | - |
| 1788552845 | 32.22° C | 68% | 1013.9 hPa | 0 mm | - | 540 W/m² | - |
| 1788552541 | 32.22° C | 67% | 1014.3 hPa | 0 mm | - | 559 W/m² | - |
| 1788552239 | 32.22° C | 68% | 1014 hPa | 0 mm | - | 530 W/m² | - |
| 1788551934 | 31.67° C | 69% | 1014.2 hPa | 0 mm | - | 521 W/m² | - |
| 1788551632 | 31.67° C | 70% | 1014.2 hPa | 0 mm | - | 553 W/m² | - |
| 1788551327 | 32.22° C | 68% | 1014.1 hPa | 0 mm | - | 535 W/m² | - |
| 1788551026 | 31.11° C | 68% | 1014.3 hPa | 0 mm | - | 531 W/m² | - |
| 1788550722 | 30.56° C | 74% | 1014.4 hPa | 0 mm | - | 540 W/m² | - |
| 1788550417 | 30.56° C | 74% | 1014.2 hPa | 0 mm | - | 546 W/m² | - |
| 1788550112 | 30° C | 73% | 1014.2 hPa | 0 mm | - | 569 W/m² | - |
| 1788549807 | 29.44° C | 75% | 1014.2 hPa | 0 mm | - | 580 W/m² | - |
| 1788549505 | 30° C | 77% | 1014 hPa | 0 mm | - | 593 W/m² | - |
| 1788549201 | 28.89° C | 79% | 1013.7 hPa | 0 mm | - | 618 W/m² | - |
| 1788548897 | 28.89° C | 80% | 1013.6 hPa | 0 mm | - | 256 W/m² | - |
* Rain latest hour (hover to see other rain measurements)
** Current wind speed in m/s (hover to see current wind gust speed)